Location: Boiro
(42.6475°N, 8.8834°W)
Time: 00:31:01
(UTC+01:00)

Altair - Pass Details

Date: 06 December 2021
Orbit: 1501 x 1683 km, 47.2° (Epoch: 18 January)

Event Time Altitude Azimuth Distance (km) Brightness Sun altitude
Rises 19:33:15 0° 278° (W) 4,738 11.3 -16.2°
Reaches altitude 10° 19:36:24 10° 281° (W) 3,731 10.5 -16.8°
Maximum altitude 19:45:45 67° 3° (N) 1,624 7.5 -18.4°
Enters shadow 19:51:11 28° 79° (E) 2,539 8.0 -19.4°
Drops below altitude 10° 19:54:53 10° 86° (E) 3,652 - -20.1°
Sets 19:57:56 0° 90° (E) 4,632 - -20.6°
